Location: Pinawa
(50.1500°N, 95.8830°W)
Time: 07:18:37
(UTC-05:00)

ISS - All Passes

Search period start: 30 May 2015 00:00
Search period end: 09 June 2015 00:00
Orbit: 399 x 404 km, 51.6° (Epoch: 30 May)

Date Brightness Start Highest point End Pass type
(mag) Time Alt. Az. Time Alt. Az. Time Alt. Az.
30 May - 00:19:14 10° SW 00:22:25 52° SSE 00:25:36 10° ENE visible
30 May - 01:55:34 10° W 01:58:49 67° N 02:02:05 10° ENE visible
30 May - 03:32:05 10° WNW 03:35:22 85° NNE 03:38:39 10° ESE visible
30 May - 05:08:41 10° W 05:11:35 29° SSW 05:14:27 10° SSE daylight
30 May - 23:26:17 10° SW 23:29:15 34° SSE 23:32:15 10° E visible
31 May - 01:02:15 10° W 01:05:31 78° N 01:08:47 10° ENE visible
31 May - 02:38:49 10° WNW 02:42:04 70° N 02:45:21 10° E visible
31 May - 04:15:17 10° W 04:18:26 45° SSW 04:21:34 10° SE visible
31 May - 22:33:35 10° SSW 22:36:08 22° SE 22:38:43 10° E visible
01 Jun - 00:08:59 10° WSW 00:12:14 82° SSE 00:15:30 10° ENE visible
01 Jun - 01:45:30 10° W 01:48:45 65° N 01:52:00 10° E visible
01 Jun - 03:21:59 10° WNW 03:25:14 67° SSW 03:28:28 10° ESE visible
01 Jun - 04:59:03 10° W 05:01:13 16° SW 05:03:20 10° S daylight
01 Jun - 21:41:25 10° S 21:43:04 14° SE 21:44:48 10° ESE daylight
01 Jun - 23:15:47 10° SW 23:18:59 57° SSE 23:22:12 10° ENE visible
02 Jun - 00:52:10 10° W 00:55:25 66° N 00:58:40 10° E visible
02 Jun - 02:28:41 10° WNW 02:31:57 89° N 02:35:14 10° ESE visible
02 Jun - 04:05:20 10° W 04:08:07 26° SW 04:10:54 10° SSE visible
02 Jun - 22:22:45 10° SW 22:25:47 37° SSE 22:28:51 10° E visible
02 Jun - 23:58:49 10° W 00:02:05 75° NNW 00:05:21 10° ENE visible
03 Jun - 01:35:23 10° WNW 01:38:38 73° N 01:41:54 10° E visible
03 Jun - 03:11:52 10° W 03:14:58 40° SSW 03:18:02 10° SE visible
03 Jun - 21:29:57 10° SSW 21:32:38 24° SE 21:35:20 10° E daylight
03 Jun - 23:05:30 10° WSW 23:08:45 87° SSE 23:12:02 10° ENE visible
04 Jun - 00:42:03 10° W 00:45:18 65° N 00:48:33 10° E visible
04 Jun - 02:18:30 10° WNW 02:21:44 61° SSW 02:24:58 10° ESE visible
04 Jun - 03:55:45 10° WSW 03:57:41 15° SW 03:59:33 10° S visible
04 Jun - 20:37:34 10° S 20:39:31 15° SE 20:41:31 10° ESE daylight
04 Jun - 22:12:15 10° WSW 22:15:28 63° SSE 22:18:42 10° ENE visible
04 Jun - 23:48:41 10° W 23:51:55 65° N 23:55:10 10° E visible
05 Jun - 01:25:11 10° WNW 01:28:27 85° SSW 01:31:43 10° ESE visible
05 Jun - 03:01:54 10° W 03:04:34 23° SW 03:07:13 10° SSE visible
05 Jun - 21:19:08 10° SW 21:22:13 42° SSE 21:25:19 10° E daylight
05 Jun - 22:55:18 10° W 22:58:33 72° N 23:01:49 10° ENE visible
06 Jun - 00:31:51 10° WNW 00:35:07 76° NNE 00:38:23 10° E visible
06 Jun - 02:08:21 10° W 02:11:24 36° SSW 02:14:26 10° SE visible
06 Jun - 20:26:14 10° SSW 20:29:01 27° SSE 20:31:50 10° E daylight
06 Jun - 22:01:56 10° WSW 22:05:12 88° N 22:08:28 10° ENE daylight
06 Jun - 23:38:29 10° W 23:41:44 66° N 23:44:59 10° E visible
07 Jun - 01:14:57 10° WNW 01:18:09 55° SSW 01:21:21 10° SE visible
07 Jun - 02:52:25 10° WSW 02:54:03 13° SW 02:55:36 10° SSW visible
07 Jun - 19:33:42 10° S 19:35:52 17° SE 19:38:06 10° E daylight
07 Jun - 21:08:38 10° WSW 21:11:52 69° SSE 21:15:07 10° ENE daylight
07 Jun - 22:45:06 10° W 22:48:20 64° N 22:51:35 10° E visible
08 Jun - 00:21:35 10° WNW 00:24:51 80° SSW 00:28:06 10° ESE visible
08 Jun - 01:58:22 10° W 02:00:56 21° SW 02:03:26 10° SSE visible
08 Jun - 18:42:26 10° SE 18:42:46 10° SE 18:43:12 10° SE daylight
08 Jun - 20:15:27 10° SW 20:18:34 46° SSE 20:21:43 10° ENE daylight
08 Jun - 21:51:41 10° W 21:54:57 70° N 21:58:11 10° ENE daylight
08 Jun - 23:28:13 10° WNW 23:31:29 80° NNE 23:34:45 10° E visible
